Wind_Speed
3 4 3 5 5 5 6 6 6 7 6 7 7 5 6 7 6 3 5 8 8 7 8 9 8 8 8 8 9 11 11 11 10 9 12 14 14 15 15 16 17 17 18 19 20 20 20 20 20 21 24 24 23 23 21 21 25 27 27 25 23 20 18 17 18 20 20 19 20 21 23 25 26 28 29 29 29 29 29 29 30 31 31 31 33 33 34
6 5 2 2 4 4 4 3 3 5 4 3 3 4 6 7 7 8 8 8 10 9 8 8 8 8 9 9 10 11 13 13 9 9 11 13 15 16 17 17 18 18 19 19 20 21 22 22 21 21 23 24 25 25 23 21 23 25 26 24 22 21 19 16 15 17 18 18 18 20 23 24 25 27 28 29 29 28 27 28 29 29 30 32 33 33 33
10 7 5 2 3 2 4 3 1 2 4 1 1 5 8 7 7 9 9 5 6 8 7 8 8 9 11 12 12 14 15 12 9 10 12 14 15 17 17 18 20 20 19 19 20 22 23 23 23 23 23 25 26 24 22 21 20 21 24 24 22 21 18 14 11 12 14 15 15 17 20 21 22 23 25 27 29 28 27 28 27 27 29 32 33 32 31
8 4 6 4 3 2 6 5 3 2 2 2 3 6 8 6 4 6 8 4 4 6 6 7 9 11 12 13 14 15 14 11 10 10 13 14 17 18 18 19 21 21 20 20 20 21 23 24 24 23 23 25 26 24 23 22 18 18 22 24 23 22 17 12 11 11 12 13 14 14 17 19 20 21 23 24 26 27 28 28 28 29 31 32 32 30 28
3 1 5 3 2 4 5 2 4 3 2 3 4 5 7 7 4 4 5 4 3 5 6 7 9 11 13 13 15 15 11 10 10 11 13 16 17 18 19 20 21 22 21 21 21 22 23 23 24 24 23 23 24 25 24 22 19 17 21 23 23 21 17 12 11 11 11 12 12 12 15 18 19 20 21 22 23 23 24 27 30 32 33 32 30 28 27
3 2 1 1 3 4 1 6 7 7 6 5 5 6 5 4 4 2 2 3 4 6 8 10 10 11 12 14 16 13 9 9 10 12 15 17 18 19 20 21 21 22 22 22 22 22 22 22 22 23 23 22 22 24 24 22 18 17 20 22 22 20 16 12 10 11 11 12 11 11 13 16 17 17 18 19 19 19 21 24 28 31 31 30 28 27 26
4 3 1 3 4 0 5 7 6 6 6 6 6 5 2 3 4 1 1 3 6 8 9 11 12 11 14 17 16 9 6 8 12 15 17 19 19 19 20 21 22 23 23 24 24 23 23 22 22 23 23 22 22 23 23 22 19 17 19 21 22 19 14 10 9 10 10 11 11 11 12 13 15 16 17 17 17 18 20 20 22 25 26 26 25 24 23
3 3 4 4 1 6 8 7 5 3 3 6 6 4 3 4 3 4 5 5 6 9 10 11 12 13 16 18 10 4 5 10 14 17 19 19 20 20 20 22 23 24 25 24 24 24 24 23 23 23 23 23 22 22 23 23 20 18 19 19 20 19 15 10 9 9 10 11 10 10 11 11 13 14 15 16 16 16 17 17 18 20 21 21 20 20 19
3 5 4 1 6 8 5 5 6 5 5 7 6 4 4 8 8 8 7 5 6 10 11 12 13 14 16 13 3 4 7 14 17 18 18 19 20 20 21 22 24 24 24 23 23 24 25 25 24 24 23 22 22 22 23 23 22 20 20 19 19 18 16 12 11 10 10 11 10 10 10 10 11 12 13 13 12 13 14 14 15 16 16 17 18 17 17
3 4 4 3 3 3 2 4 7 8 6 6 4 3 2 9 12 10 7 7 8 9 10 12 14 13 11 7 3 5 12 17 19 19 19 19 21 21 22 23 24 24 23 23 24 26 26 26 25 24 23 23 23 22 22 23 23 21 21 21 19 18 17 15 13 11 11 10 10 10 10 10 11 11 12 12 12 12 13 13 13 13 14 15 17 17 17
4 4 5 4 2 2 3 3 6 7 5 4 4 4 1 7 11 10 8 8 8 9 10 12 13 10 6 5 7 13 17 19 20 20 20 21 21 21 22 22 22 24 25 26 27 26 25 25 25 24 23 23 22 22 21 22 23 21 21 21 20 19 19 16 14 12 12 11 10 10 11 10 10 11 12 12 11 12 12 12 12 13 13 14 16 17 16
3 4 5 2 3 4 5 6 5 5 4 5 6 3 1 7 9 9 9 9 9 10 11 11 9 7 6 8 12 17 20 20 20 21 22 23 22 22 22 23 23 25 26 27 27 25 24 25 25 24 23 22 22 21 21 22 22 21 21 21 20 20 19 18 15 13 12 12 11 11 12 11 11 11 12 12 11 11 10 10 11 13 13 14 16 15 14
2 3 4 1 5 5 5 6 5 6 5 4 4 1 2 5 8 8 8 10 9 10 11 10 9 9 11 13 17 19 19 20 21 22 22 23 23 23 23 24 25 25 26 26 26 26 26 26 25 24 23 22 22 22 22 22 21 20 20 20 20 19 19 19 17 14 13 13 12 12 13 12 11 11 10 11 10 9 9 9 10 12 14 14 14 13 11
3 3 2 3 6 4 7 4 6 8 7 3 1 3 1 3 7 8 8 9 9 10 11 11 11 13 15 17 18 19 19 21 22 23 24 24 24 24 24 25 25 25 26 26 26 26 26 25 25 25 24 23 24 23 22 21 21 20 20 19 20 19 19 20 18 16 15 15 14 13 12 11 10 9 9 10 10 8 8 8 9 11 12 12 12 10 9
2 3 2 2 3 3 7 5 4 7 5 2 3 3 2 4 7 7 8 9 9 10 12 13 14 16 17 18 18 19 20 21 22 23 24 24 24 25 26 26 25 26 27 27 27 27 26 25 25 25 25 24 24 23 23 22 22 21 19 19 20 20 19 19 19 19 18 16 14 14 13 12 11 9 9 9 9 8 7 6 7 10 11 11 11 9 9
4 3 2 3 4 6 8 6 4 5 5 4 3 4 4 5 6 7 8 9 10 11 13 15 16 17 18 18 19 20 21 22 22 23 24 24 24 25 26 26 26 27 27 28 28 28 27 26 25 25 25 24 24 24 23 22 22 21 19 18 19 20 19 19 19 21 20 17 14 13 13 13 11 9 9 8 7 7 7 5 6 9 11 11 10 8 8
3 4 5 5 4 6 8 6 7 7 5 4 5 6 5 5 6 7 8 9 10 12 14 15 17 17 18 19 20 21 21 22 23 23 23 24 25 25 26 27 27 27 27 28 29 30 29 27 26 25 25 24 24 24 22 21 21 21 19 18 18 19 20 20 19 20 20 18 15 13 12 12 11 9 8 8 7 7 7 6 6 9 11 11 10 8 8
4 5 4 4 5 5 6 8 9 7 5 5 6 6 5 6 7 8 9 10 11 13 14 16 17 17 19 20 20 20 21 22 23 23 24 24 25 26 26 27 27 27 28 28 28 30 30 29 27 25 24 23 23 22 21 21 20 20 19 18 18 18 19 19 18 19 21 19 16 13 11 11 11 9 8 8 8 8 8 9 9 9 11 12 10 8 8
1 2 2 2 5 7 5 5 4 4 4 5 5 5 5 6 8 8 9 10 12 14 15 16 17 18 20 21 20 20 21 23 23 23 23 23 24 26 27 27 27 28 28 29 30 30 30 29 28 26 25 23 22 22 21 20 20 20 20 19 19 19 19 18 17 19 20 20 18 15 12 11 11 10 9 9 10 11 11 11 10 8 11 13 12 11 10
0 3 3 3 4 6 5 3 3 4 5 5 4 5 6 7 9 9 10 11 13 15 16 17 18 20 20 20 20 21 22 23 23 23 23 23 25 27 27 27 28 28 29 31 31 30 28 28 27 27 26 24 23 21 20 20 20 20 20 20 20 21 21 20 19 18 18 18 18 16 13 12 12 12 10 10 11 12 12 13 11 10 11 13 14 13 12
1 4 5 4 2 4 4 3 1 2 3 3 4 5 6 8 10 10 11 13 14 15 17 18 19 20 20 19 20 22 23 24 24 24 24 24 26 27 28 29 30 29 30 32 31 30 28 27 27 27 26 24 23 22 20 19 19 21 21 20 20 21 22 21 20 18 15 14 16 17 15 13 13 13 11 11 12 13 14 12 10 10 11 12 13 13 11
1 4 4 5 2 1 3 4 2 2 2 4 5 6 7 10 11 12 13 15 15 16 17 18 19 20 20 19 20 22 23 23 24 25 24 25 28 29 30 31 30 29 29 31 31 29 27 26 26 26 25 23 23 23 21 20 19 21 21 20 20 21 21 20 20 19 16 15 16 17 16 15 15 14 12 12 13 13 12 10 9 9 11 11 11 11 10
5 5 4 4 4 2 3 5 5 4 4 5 6 8 10 12 12 13 14 16 17 17 17 18 19 19 19 20 21 22 22 23 24 24 24 26 30 31 30 30 29 28 29 30 29 27 26 26 25 24 23 23 22 22 22 20 20 21 22 21 20 20 19 19 20 20 19 19 18 16 15 15 16 16 13 12 14 14 11 10 11 12 13 13 12 12 12
6 6 4 4 4 4 4 4 3 4 5 6 7 9 11 13 13 14 15 16 17 18 18 18 18 17 19 20 21 21 22 22 23 25 25 27 29 30 29 29 29 28 28 28 27 27 27 26 25 24 23 22 20 21 21 20 19 20 22 22 21 19 18 20 20 20 20 21 19 17 15 15 15 15 14 12 14 14 13 13 14 13 14 15 14 14 15
6 5 4 3 2 3 3 3 3 4 4 6 9 11 12 13 14 15 16 17 17 18 19 18 17 17 19 20 20 20 21 22 24 24 26 27 28 27 28 30 29 27 27 26 26 25 25 24 24 23 22 20 19 20 21 19 18 18 19 21 22 19 18 19 21 20 20 19 18 17 16 15 14 14 15 14 13 12 12 14 16 16 15 16 16 15 15
5 4 2 2 3 2 2 3 4 5 6 8 11 12 12 14 15 15 16 17 17 17 17 17 17 17 19 19 19 20 21 23 25 25 25 27 27 26 27 29 28 27 26 26 26 24 23 23 23 21 19 17 18 20 20 18 18 18 18 20 21 20 18 19 20 20 20 18 16 16 16 15 15 14 15 15 14 12 11 12 14 15 15 15 16 15 15
4 3 3 4 4 3 5 5 5 7 9 10 11 13 13 14 15 16 16 17 17 16 16 16 17 18 18 18 19 20 21 24 25 25 25 26 26 24 25 27 28 27 26 26 25 24 23 24 24 22 20 17 17 19 18 18 19 19 18 17 19 20 19 18 17 18 19 18 16 16 15 15 16 16 15 14 13 12 11 11 11 12 12 11 11 12 13
2 2 3 5 5 6 7 7 7 8 10 10 11 13 14 15 16 16 16 16 16 16 15 16 16 18 18 18 19 20 22 23 24 24 26 27 26 25 24 25 26 27 28 27 25 24 25 25 25 25 23 19 17 18 18 17 18 18 17 16 17 18 19 18 17 16 17 18 17 15 14 13 13 15 15 14 13 11 11 11 11 10 9 8 6 6 9
1 2 3 4 5 5 6 7 8 9 10 11 12 12 14 15 15 15 15 15 15 15 16 16 16 17 18 18 19 20 23 23 23 24 25 25 26 26 25 23 24 27 29 28 26 24 24 25 25 25 24 21 18 17 17 17 16 16 16 16 16 16 17 17 17 17 17 17 16 15 14 14 12 12 13 14 13 11 10 10 9 5 5 5 4 3 5
1 1 3 4 5 6 7 8 9 10 11 12 12 13 13 14 14 14 15 15 15 15 16 16 16 16 17 18 19 21 23 23 23 24 24 23 25 26 25 23 25 27 28 29 28 26 25 25 26 26 24 21 18 16 15 15 15 15 15 16 16 16 16 15 16 17 18 18 17 15 15 14 12 11 11 11 11 10 8 7 7 4 1 2 3 2 3
1 2 4 5 5 7 9 9 9 11 11 12 13 13 13 13 14 15 15 15 15 15 16 16 16 17 18 19 20 21 22 22 23 24 24 23 24 25 25 24 25 26 27 29 29 28 27 26 26 25 24 22 20 17 15 15 14 14 15 16 16 16 16 15 15 17 18 19 19 17 16 15 13 11 10 9 8 7 6 7 9 9 6 5 6 5 4
2 4 5 5 6 7 9 8 9 11 11 12 13 13 13 13 14 15 15 15 15 16 17 17 16 17 19 20 21 22 23 23 23 23 23 22 23 24 24 25 25 25 26 28 27 27 28 28 26 24 23 21 19 17 16 16 16 15 15 15 16 17 17 16 16 17 17 17 16 15 16 15 13 11 10 9 6 6 6 8 10 9 8 9 10 10 9
3 4 5 5 6 8 9 9 10 11 12 13 13 13 13 14 14 14 15 15 15 16 17 17 17 17 19 21 22 22 23 23 23 22 22 22 23 22 22 23 24 24 26 26 25 26 28 27 25 24 23 21 19 16 15 16 16 15 15 15 15 17 17 17 16 16 16 15 13 12 13 13 11 8 7 7 6 6 7 8 7 6 7 9 9 10 11
2 3 5 5 7 8 10 10 11 13 13 13 13 13 14 14 14 14 15 15 15 16 17 16 17 18 20 21 21 21 22 23 23 22 22 23 24 23 21 21 22 24 25 24 24 26 27 25 25 25 24 21 18 16 15 16 16 15 14 14 14 15 16 16 15 14 14 14 13 11 11 11 8 5 3 4 5 6 7 9 8 8 9 11 10 10 10
3 4 5 6 7 8 10 11 12 12 13 14 14 14 14 14 14 15 15 14 15 16 16 15 17 19 20 21 21 22 23 23 23 23 23 23 24 23 21 20 21 24 25 25 25 26 26 25 25 26 24 21 18 16 14 15 16 15 14 13 13 14 15 15 14 14 14 13 12 12 10 8 4 2 1 2 4 4 6 8 9 10 10 10 10 10 10
4 5 6 7 8 9 10 11 11 12 13 13 14 14 15 15 15 15 15 14 15 15 14 14 17 19 20 21 21 22 22 22 23 23 23 23 22 21 21 20 21 24 27 26 24 24 25 25 25 24 22 21 19 17 15 14 14 14 14 13 12 12 12 13 14 14 13 12 10 9 8 5 1 1 1 1 2 3 3 5 7 8 9 10 10 10 9
5 6 7 8 9 9 10 11 11 12 13 13 14 15 15 15 15 15 14 14 14 14 14 15 17 19 20 20 20 21 20 20 21 22 22 21 21 21 20 20 21 24 27 26 24 24 24 25 24 23 22 20 18 17 15 14 14 13 13 12 11 10 10 11 12 12 11 11 10 8 7 6 4 2 1 1 1 3 3 3 4 6 8 10 11 10 8
6 7 9 9 9 10 11 11 11 12 13 14 14 15 15 15 15 15 15 15 14 14 15 16 16 18 19 18 18 19 18 18 20 22 21 20 20 21 20 19 20 24 26 25 23 23 24 23 23 23 23 23 21 18 15 14 13 13 13 11 10 9 9 8 8 9 9 9 8 7 7 7 7 5 2 1 0 3 4 4 4 5 6 8 9 9 7
8 8 10 10 10 10 11 11 12 13 13 13 15 15 15 16 16 15 16 17 16 16 16 15 16 18 19 18 18 20 18 17 19 21 19 18 19 19 17 16 19 23 24 22 21 21 22 22 23 24 25 27 28 25 20 14 10 11 13 11 9 9 8 6 6 7 7 7 7 6 5 5 5 5 4 1 0 2 4 4 3 3 3 3 4 4 4
9 9 10 10 10 11 12 12 13 13 13 14 15 15 15 16 16 16 17 18 18 16 14 13 15 19 20 18 20 22 20 17 18 19 17 17 18 17 15 16 20 22 21 20 18 18 20 22 24 25 28 30 30 29 26 19 10 7 9 11 10 9 8 6 6 7 7 7 6 5 4 2 3 3 3 2 2 2 3 2 1 1 2 2 2 0 2
10 10 11 10 10 11 12 13 13 14 14 14 15 15 15 16 17 17 18 18 18 17 14 12 15 20 21 19 20 22 19 17 18 18 16 16 17 15 14 17 21 22 21 18 16 17 21 24 26 27 29 30 28 27 27 23 15 7 5 6 7 7 8 8 7 7 7 7 6 4 3 2 2 2 3 4 5 6 5 2 1 2 1 2 2 2 2
10 11 11 11 10 11 12 13 14 15 15 15 15 15 16 17 17 18 19 18 17 16 15 13 15 19 21 19 19 19 17 16 17 16 14 14 15 14 14 18 22 22 19 16 15 17 21 24 26 27 28 28 28 27 27 24 19 12 8 5 2 3 5 7 7 6 6 7 6 3 1 1 1 1 3 5 5 4 3 2 1 3 4 3 1 3 5
11 11 11 11 12 12 13 13 14 15 16 16 16 16 17 18 18 18 20 20 17 16 15 14 16 18 19 17 17 17 16 15 16 16 13 13 13 13 15 20 23 21 17 14 14 17 20 23 25 25 26 26 26 28 28 25 21 16 11 7 4 2 1 3 5 5 5 5 5 5 3 1 1 1 2 3 2 1 2 2 2 2 3 3 3 2 1
12 12 11 12 13 13 13 14 14 15 16 17 17 17 18 18 18 17 19 19 16 15 14 15 17 18 17 15 15 15 14 14 15 15 13 12 13 14 16 20 22 20 17 15 15 16 20 23 23 23 23 24 24 26 28 28 24 18 13 9 6 3 3 2 2 5 6 5 5 5 4 3 3 3 1 1 0 1 2 3 4 4 4 5 6 6 6
13 12 12 12 13 14 14 14 14 15 17 17 17 17 18 18 17 17 18 17 16 15 14 15 17 18 17 15 14 13 12 12 13 13 12 12 13 14 17 21 20 17 16 16 16 16 19 23 22 20 21 22 24 26 28 29 27 22 16 10 6 4 3 3 2 2 6 6 5 4 5 5 6 6 5 5 6 6 6 5 5 6 6 6 7 7 8
14 13 13 13 14 14 14 14 15 16 17 16 16 16 16 16 16 16 18 18 18 16 14 14 16 17 16 15 13 11 10 10 10 10 10 12 13 14 17 19 18 16 16 16 17 18 21 23 21 19 19 21 24 26 27 28 28 26 21 14 7 6 5 3 1 1 3 6 6 6 6 7 7 6 5 6 8 9 8 7 6 6 6 6 7 7 7
14 14 14 14 14 15 15 15 15 16 16 15 14 14 14 14 14 15 17 17 17 15 14 15 16 15 14 13 13 11 10 10 9 10 11 12 11 12 14 15 15 17 17 15 15 18 21 21 19 18 18 19 21 25 27 28 28 28 26 20 12 7 7 6 3 1 1 3 5 4 4 5 6 6 5 4 6 7 6 4 4 4 5 5 5 5 4
16 15 14 15 15 14 15 15 15 15 15 14 13 14 14 13 14 15 15 16 18 18 17 16 16 15 13 12 11 11 10 10 9 10 11 12 10 10 12 13 14 16 16 14 13 18 20 20 18 17 15 16 18 21 25 28 29 28 27 25 18 12 8 7 6 4 3 1 1 1 2 2 2 2 2 1 2 3 3 3 3 3 3 2 2 2 2
17 16 15 15 15 14 15 15 14 14 14 13 13 15 15 14 14 14 14 16 19 19 16 14 14 14 13 12 11 10 9 9 9 9 10 11 11 11 11 11 12 15 15 13 13 16 19 20 18 15 13 14 16 17 20 24 28 29 29 28 24 18 13 10 8 7 5 4 3 3 2 2 2 2 2 2 2 3 4 5 4 4 4 3 3 4 6
18 18 17 15 15 14 14 14 14 15 15 14 14 15 15 14 13 12 11 12 15 16 13 10 11 13 14 13 11 8 7 8 9 9 10 11 12 10 9 9 11 14 15 13 12 13 15 16 16 14 13 13 14 15 17 20 24 29 32 32 30 26 22 17 13 11 9 8 6 5 6 7 7 7 7 8 7 7 7 7 7 7 7 9 11 13 15
16 16 15 15 14 14 13 14 15 15 15 14 14 14 13 12 11 11 10 11 13 13 11 9 10 12 13 12 10 8 7 8 8 9 10 11 10 9 7 7 9 11 13 12 11 12 12 12 14 15 15 13 13 15 17 18 20 24 29 32 32 32 30 28 24 21 18 16 14 14 15 16 15 14 14 15 14 12 13 14 15 15 16 17 19 19 19
15 14 14 14 14 14 13 14 15 15 14 14 13 12 11 11 10 10 11 12 12 12 10 10 11 12 12 12 10 9 8 7 7 7 9 9 9 7 6 7 8 10 10 10 10 11 11 11 12 14 16 15 14 14 16 18 18 19 22 25 27 30 32 32 30 29 27 25 24 24 25 25 24 23 23 23 22 21 21 21 21 21 21 20 19 18 17
Wind_Direction
269 291 320 337 326 326 333 340 358 354 357 23 18 19 36 9 340 6 50 43 41 35 27 35 37 11 349 347 345 340 345 346 342 345 344 339 338 339 340 340 340 338 335 333 332 332 333 334 336 338 339 344 346 345 349 353 350 349 347 340 330 325 317 303 297 300 294 280 274 272 267 262 261 259 257 253 247 244 244 244 244 243 242 241 241 239 238
297 275 232 314 321 333 326 329 16 350 346 28 12 31 49 23 3 4 9 42 64 51 24 14 12 1 337 325 336 345 342 339 346 354 345 337 336 336 335 335 333 333 332 331 331 331 331 332 333 335 336 339 343 347 352 351 348 351 351 344 336 330 322 311 300 300 300 291 283 280 276 270 268 267 267 263 254 248 247 247 246 245 243 243 243 241 239
278 246 188 213 270 305 307 290 99 342 313 337 65 47 36 16 12 4 342 351 67 58 26 359 348 343 330 331 348 349 337 340 2 0 343 337 336 333 331 330 328 328 328 329 330 329 330 330 331 333 334 335 337 343 350 351 348 350 347 341 339 335 325 317 306 294 291 291 288 284 277 272 269 268 268 266 259 254 251 249 247 244 244 247 247 245 244
281 225 174 196 218 256 286 275 151 170 286 359 26 37 46 46 22 345 327 335 54 58 31 3 352 343 339 347 348 334 333 356 13 356 340 336 332 328 329 327 325 325 325 327 328 327 327 328 329 331 332 333 334 336 343 347 345 344 340 333 332 331 322 309 301 295 293 295 293 283 270 266 267 268 267 264 258 253 253 252 250 246 244 246 246 246 246
315 130 168 197 261 271 283 358 66 72 74 57 21 20 46 56 31 345 338 340 18 33 17 8 1 348 348 349 335 328 347 9 1 344 334 329 328 328 328 326 323 323 323 323 324 324 324 325 326 327 328 330 332 333 337 342 341 334 330 329 331 333 326 311 300 299 297 291 286 278 266 263 266 265 262 260 257 254 256 258 254 247 242 243 244 246 247
299 6 97 230 289 282 65 74 57 44 46 39 8 349 3 44 64 43 328 313 352 16 9 3 356 346 343 334 325 337 8 1 342 338 330 328 330 329 327 325 323 322 322 321 321 321 321 322 322 323 326 327 328 328 331 337 338 328 322 328 336 337 330 317 306 301 294 284 279 275 268 266 268 266 261 260 258 254 256 258 254 247 243 243 245 246 246
296 355 358 273 283 26 101 86 64 51 38 13 349 331 345 80 82 43 354 10 14 16 5 351 343 340 334 322 319 343 12 347 338 336 330 331 332 329 327 326 324 324 323 322 321 320 320 321 321 321 323 323 323 326 327 330 334 329 322 327 335 338 334 326 315 303 292 285 279 276 274 268 264 262 260 257 255 253 254 254 253 251 248 247 247 246 242
271 280 264 267 151 127 119 94 78 85 58 25 6 351 35 63 35 14 43 43 9 5 0 345 340 339 326 314 318 13 356 335 337 334 331 333 331 328 328 326 324 324 322 320 320 320 319 319 320 320 320 321 322 323 324 325 328 329 325 325 331 334 333 325 314 301 290 287 279 272 273 267 259 257 257 256 256 257 256 251 247 250 254 254 252 249 243
261 272 280 188 137 143 130 93 85 84 67 46 22 349 36 52 43 37 42 32 2 359 352 339 338 334 318 308 349 59 338 332 336 332 331 331 327 327 328 324 322 321 319 320 320 319 318 318 318 319 320 321 321 320 320 321 323 327 327 324 325 328 324 315 310 303 291 286 281 272 269 267 262 258 257 258 259 260 258 252 249 252 256 255 255 255 253
277 285 285 252 185 153 117 90 71 61 63 57 20 298 24 46 43 38 28 15 5 354 342 338 337 328 314 315 10 355 332 333 333 329 329 329 326 327 326 323 321 320 321 323 320 318 318 317 318 320 320 320 320 318 317 317 318 323 328 326 323 324 323 316 309 304 293 286 282 274 269 269 268 263 261 264 266 266 263 257 255 258 259 258 259 262 262
285 282 272 278 317 73 106 94 62 48 40 14 326 264 278 32 29 27 17 4 358 350 342 340 334 326 323 330 334 333 332 331 330 328 329 328 326 326 325 323 323 323 322 322 320 319 318 317 318 319 318 318 318 316 314 314 315 318 324 326 323 322 322 315 304 298 292 286 280 270 266 270 270 267 267 268 267 269 267 263 262 263 262 263 264 264 265
262 259 265 322 62 82 77 66 58 44 15 330 293 256 61 22 10 13 6 351 352 351 341 336 333 332 332 323 323 328 329 328 330 330 328 327 328 329 328 326 325 324 323 322 321 320 317 316 317 317 317 316 315 314 312 312 313 315 318 321 320 317 315 312 305 298 290 286 280 271 267 269 270 270 271 269 269 272 268 265 268 265 261 261 264 265 266
255 243 257 96 93 73 45 53 47 4 324 287 284 307 44 11 355 0 357 346 346 345 336 334 332 326 323 320 320 325 328 329 330 329 326 327 330 329 328 327 325 324 324 322 320 318 316 315 315 317 317 314 312 312 312 310 312 312 312 316 317 313 311 311 310 302 291 286 282 272 267 268 271 275 273 266 268 275 272 267 268 266 264 264 266 266 264
259 269 281 110 104 29 346 14 47 3 317 263 54 18 17 7 354 354 353 344 342 341 335 329 323 320 321 322 322 325 330 330 328 328 328 328 329 327 327 326 325 325 325 322 320 318 316 316 316 316 315 312 310 310 310 309 310 309 310 314 317 316 313 313 313 306 293 289 285 276 268 266 269 274 271 264 263 271 276 275 270 264 262 264 264 260 256
289 280 312 65 100 29 353 359 39 18 357 54 65 8 359 16 359 350 349 343 340 338 330 323 322 322 320 321 323 326 328 327 326 328 329 328 327 327 327 327 327 326 324 321 318 317 316 316 316 315 314 312 310 309 310 311 310 308 310 313 315 316 317 316 316 311 301 293 287 277 269 265 269 272 270 265 260 258 261 265 264 260 256 256 257 251 247
329 306 30 45 49 51 42 38 54 54 54 71 50 2 1 9 2 351 343 338 337 332 325 322 322 320 319 321 323 323 324 326 326 327 327 325 325 326 326 327 327 324 321 319 317 316 316 316 315 313 312 310 308 307 309 311 310 309 310 310 310 314 316 316 315 313 306 297 287 281 274 269 269 270 267 260 254 249 245 240 255 262 256 250 248 240 237
24 48 71 80 68 45 37 55 84 83 66 51 35 22 8 358 358 349 334 332 332 327 324 322 320 319 321 321 320 321 324 326 326 326 325 322 323 326 327 326 324 322 319 318 316 315 316 317 316 315 314 311 309 308 308 307 307 306 304 304 306 311 314 315 315 313 308 299 288 284 278 269 264 262 258 250 243 245 245 237 244 253 248 243 241 233 233
93 92 86 108 108 68 39 56 78 75 41 19 16 15 7 355 347 336 326 327 327 323 323 322 319 320 321 319 320 323 324 324 325 325 323 322 323 325 325 323 322 321 319 318 317 316 316 316 317 316 315 313 310 309 309 307 304 300 297 298 301 305 310 313 313 312 310 303 295 288 280 270 261 255 253 244 230 226 230 233 236 237 235 237 240 237 234
79 119 87 72 94 89 69 62 79 84 66 48 20 0 357 343 326 322 323 324 323 321 320 320 320 321 321 320 322 325 324 322 323 323 323 323 323 323 323 323 323 322 320 318 317 316 316 316 317 316 315 312 308 306 308 307 302 298 296 296 296 298 304 309 308 307 308 307 303 295 284 271 259 252 248 240 229 222 221 222 221 225 233 237 238 240 241
122 131 98 55 73 82 62 27 20 36 49 53 19 346 334 321 315 318 325 325 323 321 320 321 322 321 321 322 325 325 323 322 322 324 325 324 323 323 324 324 323 322 321 318 317 317 317 317 315 315 315 312 309 306 306 304 302 300 298 298 296 296 302 307 306 307 311 312 307 301 290 274 262 256 249 237 232 230 227 221 213 215 230 236 237 239 243
146 116 87 54 91 104 58 22 51 63 39 12 341 330 321 317 318 321 324 324 322 320 321 324 324 320 321 324 325 323 322 323 324 325 325 323 325 326 327 326 325 324 323 321 320 319 319 318 315 314 314 313 312 310 306 305 304 302 300 301 300 298 301 306 306 305 306 305 305 304 296 278 263 256 248 234 226 225 227 227 217 211 220 232 238 240 242
87 94 63 22 354 159 45 24 38 63 20 335 329 325 316 317 323 324 323 321 320 321 324 324 321 318 319 323 324 322 323 325 326 326 324 324 327 328 328 328 327 325 325 325 323 321 321 320 318 316 315 315 315 314 311 309 307 302 299 299 300 301 301 303 305 305 301 297 301 306 302 289 273 262 250 236 226 223 224 229 229 225 223 228 237 238 237
51 74 72 25 347 323 35 35 21 5 344 331 327 320 317 322 326 324 322 320 319 321 322 319 317 317 320 325 325 324 324 326 326 326 327 327 327 329 331 331 329 326 325 325 324 323 320 318 317 316 315 315 315 315 312 310 308 304 300 297 298 300 301 301 305 310 309 303 302 306 305 297 282 268 255 240 232 230 231 233 236 235 229 226 231 232 234
55 62 61 42 358 342 15 30 357 337 344 342 326 316 318 324 323 320 319 318 317 316 316 316 319 323 326 327 325 323 325 327 327 326 326 327 328 331 334 333 330 328 326 325 323 322 320 319 319 318 317 318 318 315 311 307 304 302 300 297 295 297 299 299 303 311 313 309 307 309 306 298 284 270 259 249 239 234 233 236 236 235 231 228 229 231 236
75 70 52 46 356 331 342 329 312 329 348 331 314 312 318 320 317 316 317 315 314 314 317 321 326 328 328 326 324 323 323 325 327 327 327 329 331 333 335 337 336 332 329 326 323 321 321 321 321 321 319 318 316 313 310 306 302 299 297 297 296 295 296 296 299 308 312 311 311 312 308 302 291 270 254 250 246 237 235 238 237 235 235 234 233 234 239
64 60 19 280 253 272 314 301 309 335 339 321 312 314 317 315 314 316 315 313 316 320 323 328 330 328 326 325 324 323 322 324 327 328 329 332 334 333 336 340 341 337 332 328 325 323 320 320 323 324 320 315 314 315 315 311 305 299 296 296 296 295 296 296 297 303 309 310 310 311 309 306 301 283 261 254 250 240 233 238 241 240 240 242 243 243 246
42 18 332 295 291 357 18 358 336 333 328 319 314 314 315 315 315 315 314 316 321 326 329 331 328 325 326 325 324 324 325 325 326 329 331 334 336 335 335 338 339 338 335 331 328 325 320 320 324 325 320 316 315 317 316 311 306 301 296 293 293 293 297 300 300 303 309 310 307 305 304 306 308 300 283 266 256 245 232 229 238 244 243 244 250 251 252
31 350 340 329 334 358 2 345 330 326 320 315 316 316 317 318 317 317 319 323 326 328 329 329 327 326 326 326 325 326 326 326 327 329 331 334 336 337 335 335 336 338 338 337 334 328 323 324 327 325 323 322 320 319 318 314 309 306 301 295 292 293 296 298 298 302 308 310 308 303 300 302 309 305 288 266 252 251 242 229 230 236 231 227 236 247 249
0 326 336 338 335 335 324 317 322 323 316 314 318 319 320 321 322 323 325 326 327 327 326 327 328 327 326 327 328 327 327 328 329 330 330 332 335 338 338 335 334 338 342 344 343 336 329 328 327 326 325 323 319 318 318 314 307 305 301 294 291 290 292 295 297 301 305 310 313 312 308 305 309 312 300 275 255 253 251 237 228 220 200 195 205 236 248
347 321 314 316 315 309 307 314 322 318 313 317 320 318 319 323 323 323 324 325 326 326 324 324 326 327 328 329 328 326 327 328 329 330 332 332 333 337 340 339 337 339 345 348 348 345 340 335 330 328 327 325 322 320 317 310 303 300 297 292 286 284 285 291 296 300 304 307 309 310 312 313 312 313 307 286 263 258 261 245 232 228 157 142 163 208 247
332 298 292 302 314 314 315 320 320 315 316 321 320 317 321 326 325 323 323 323 323 321 320 321 323 326 328 329 327 326 327 327 327 329 331 329 330 335 342 344 341 340 344 347 347 346 346 342 336 332 330 326 324 324 321 313 305 300 298 295 291 286 284 286 294 301 307 309 307 306 308 314 317 317 314 301 279 277 286 262 242 241 246 238 224 227 239
330 307 305 324 333 322 318 322 321 318 319 318 318 321 327 328 324 321 320 319 318 318 318 320 322 325 328 328 328 328 327 326 328 331 330 328 329 334 339 342 342 341 342 344 345 345 346 344 341 338 334 328 326 326 323 316 311 306 304 301 296 292 289 289 297 306 309 308 308 307 305 307 314 321 322 314 291 270 264 256 246 240 242 242 237 238 248
345 323 322 336 332 319 319 323 320 316 315 316 320 326 327 323 320 318 317 316 315 316 319 322 324 326 328 328 329 330 329 329 330 330 328 330 333 334 334 337 343 346 347 346 346 346 346 346 344 341 337 332 329 327 322 317 312 307 303 301 297 295 295 295 301 308 309 303 301 302 303 304 309 317 320 308 284 252 238 239 241 245 253 252 241 235 241
340 319 315 319 317 315 318 320 316 314 316 319 322 323 321 320 319 315 313 313 314 316 320 322 323 325 328 330 330 332 333 332 330 328 329 333 337 339 337 337 341 348 350 349 349 350 350 349 347 345 342 339 337 332 325 322 318 309 302 300 300 299 298 296 300 309 313 307 300 301 307 307 302 303 306 289 270 250 238 235 234 239 252 257 252 246 247
315 312 309 311 313 315 317 318 318 319 319 320 320 318 318 319 317 313 312 312 312 316 320 320 319 324 331 335 335 334 333 333 333 333 334 335 336 338 339 338 339 346 351 353 353 353 351 349 349 349 347 346 346 341 333 328 324 317 308 303 301 301 298 294 296 307 315 314 308 309 314 308 286 254 254 260 253 243 240 241 238 237 243 250 253 254 255
321 317 312 311 313 316 318 319 320 319 316 316 316 315 315 316 313 311 311 310 310 315 319 319 320 327 334 337 336 333 332 336 339 337 335 335 335 335 337 337 340 346 351 353 354 353 352 352 353 352 351 349 349 349 347 338 328 321 317 312 305 303 302 301 301 305 312 315 313 311 312 308 283 141 113 265 265 258 244 241 242 241 241 244 248 250 253
322 319 315 313 315 318 319 318 318 316 314 313 313 313 313 313 312 310 309 308 310 315 316 315 321 329 333 335 335 333 333 338 340 337 335 337 335 333 335 338 342 346 350 352 352 352 353 356 356 355 356 355 351 347 346 344 337 331 325 319 311 303 299 302 307 308 310 317 318 305 292 294 303 315 40 65 300 276 248 229 237 240 235 235 239 239 241
326 320 315 314 314 315 315 316 316 314 312 312 312 311 312 312 311 310 308 308 311 315 313 311 320 329 332 334 335 334 334 338 337 335 336 336 333 334 340 343 344 346 349 350 349 349 352 355 356 359 2 3 358 350 342 338 339 338 333 325 318 312 304 303 306 303 300 309 316 306 287 285 293 296 295 99 22 286 265 245 240 233 225 233 242 239 232
326 321 317 315 314 314 315 316 316 314 312 313 313 312 312 313 313 312 312 313 315 315 310 308 318 329 334 337 336 333 336 341 338 334 333 333 333 340 348 347 343 345 347 347 346 347 349 352 356 360 3 2 0 357 353 346 339 338 340 337 329 317 311 309 307 300 294 301 314 319 309 290 282 280 278 264 68 293 280 271 261 231 217 253 278 254 221
321 320 318 315 314 315 316 315 314 314 314 313 312 312 313 315 316 316 317 317 316 313 307 307 320 330 337 340 335 332 336 342 338 333 333 334 339 347 351 346 342 344 346 346 349 353 356 359 1 3 3 1 358 358 358 354 343 335 345 348 341 326 314 311 311 310 307 305 306 308 304 275 240 251 267 272 266 263 262 272 293 253 244 324 351 325 187
321 317 315 313 312 313 314 313 314 314 313 313 313 312 312 315 318 317 316 315 315 314 313 313 320 327 332 334 332 332 337 341 337 335 338 340 341 347 351 347 345 346 347 351 358 4 7 8 7 4 2 0 358 356 356 353 346 332 324 338 349 347 337 327 321 318 317 316 312 306 294 267 205 198 228 244 247 240 227 200 55 34 15 338 324 324 338
317 312 310 309 308 310 311 312 312 312 312 313 314 312 313 316 317 316 317 319 318 318 318 317 320 324 328 329 329 333 339 341 337 339 345 345 342 344 349 349 349 348 348 352 0 5 6 7 7 5 2 360 358 358 359 359 356 348 327 307 318 9 1 351 347 343 336 337 347 3 3 301 253 230 246 256 259 243 204 183 88 36 48 55 349 333 0
312 313 310 305 304 306 308 309 311 312 313 313 313 313 315 316 315 317 323 325 324 321 319 319 322 326 328 327 328 334 340 341 339 341 348 351 345 342 344 347 349 348 346 349 357 2 3 4 6 5 1 358 359 3 7 7 6 0 350 335 313 281 326 8 13 11 4 10 29 49 61 63 73 155 239 265 293 11 114 129 121 90 90 113 151 184 45
306 307 305 303 304 306 308 311 312 312 312 312 313 314 316 316 318 321 325 327 330 332 328 324 327 331 331 327 328 332 337 340 339 339 343 349 348 343 341 344 347 347 345 348 357 3 3 3 4 3 360 359 4 10 14 14 12 7 1 354 341 302 264 265 4 20 26 41 63 79 92 98 98 110 154 225 76 113 126 108 100 111 134 151 166 179 181
301 303 303 303 303 304 306 310 311 311 311 311 312 313 315 318 322 325 325 328 336 337 330 326 331 334 330 326 329 333 334 337 339 337 339 348 350 343 338 341 347 348 346 348 355 2 3 1 1 1 2 6 11 16 17 18 17 14 8 4 5 357 318 270 258 23 33 40 62 91 111 116 113 114 117 111 116 140 164 160 140 144 158 159 158 166 172
295 300 303 302 301 302 304 306 307 309 310 310 310 312 318 326 330 328 326 329 335 335 328 327 331 331 327 327 331 331 325 330 341 345 344 346 347 341 335 338 343 347 349 352 355 357 359 359 358 358 4 11 16 19 20 19 19 20 19 17 22 32 25 9 271 143 47 47 61 83 98 104 105 108 113 118 130 148 165 168 156 154 157 151 146 152 159
293 296 299 298 298 301 302 303 304 307 310 311 312 314 319 326 329 326 324 330 337 338 336 335 335 333 331 331 331 326 323 329 342 349 346 343 343 339 334 333 338 348 358 1 355 350 353 355 353 353 2 11 16 20 23 23 21 22 25 27 33 46 45 37 48 140 110 55 59 70 75 80 84 87 91 108 126 136 141 143 144 145 143 143 151 162 174
288 289 291 293 295 298 300 301 302 305 308 310 311 311 312 315 318 319 324 333 338 340 341 342 341 339 338 336 331 328 329 330 332 339 345 347 345 341 337 335 342 355 7 9 355 347 350 352 349 351 2 10 11 17 27 29 28 27 29 32 37 47 51 48 61 93 117 99 67 47 15 25 64 85 97 126 143 129 119 126 144 149 141 149 176 194 205
289 287 288 291 294 296 298 299 300 302 306 308 310 310 310 309 312 320 329 336 338 339 343 344 338 334 338 339 334 329 330 331 332 341 350 349 343 339 338 338 345 359 11 14 1 351 351 352 352 356 7 11 9 15 29 35 37 38 37 37 40 46 51 56 69 85 93 87 76 73 79 85 90 103 134 155 150 131 120 121 131 140 146 158 159 143 130
289 285 285 287 288 289 292 294 295 299 304 307 307 306 306 308 314 322 327 330 332 336 342 339 327 327 336 340 335 328 336 345 347 349 349 343 338 338 341 344 350 0 7 10 6 1 360 358 357 1 8 13 15 20 30 40 47 49 47 45 46 50 53 58 67 76 81 82 80 86 102 108 107 109 115 116 113 116 122 125 126 129 129 126 122 118 114
278 277 276 276 278 281 287 291 294 296 300 302 301 301 304 313 319 319 317 321 327 333 337 335 328 330 336 338 331 327 340 351 348 343 341 337 333 334 344 353 357 2 5 6 8 12 14 8 2 3 12 24 30 27 27 37 52 56 54 52 53 55 58 62 67 71 76 82 88 94 100 102 101 100 103 103 104 110 119 121 119 117 115 112 112 111 109
273 270 267 270 277 283 289 293 294 295 295 295 294 295 302 311 315 310 312 324 336 341 340 338 333 329 332 336 334 327 328 335 339 340 340 336 331 334 348 359 2 4 7 10 13 18 21 19 14 14 22 35 41 35 28 32 45 54 56 57 59 60 61 64 69 73 79 84 87 89 91 93 94 96 99 100 101 103 106 108 109 109 107 104 104 104 105
Height
1496 1494 1497 1498 1499 1502 1502 1503 1505 1505 1505 1508 1512 1514 1515 1515 1521 1527 1522 1520 1526 1526 1522 1525 1526 1526 1527 1526 1526 1526 1525 1525 1525 1525 1525 1524 1523 1522 1521 1520 1519 1517 1516 1515 1513 1511 1510 1509 1508 1507 1505 1504 1502 1501 1499 1498 1497 1495 1491 1488 1487 1487 1488 1490 1493 1495 1495 1496 1496 1496 1496 1496 1495 1495 1495 1496 1496 1496 1496 1497 1497 1498 1499 1501 1502 1503 1504
1497 1495 1498 1499 1500 1504 1504 1504 1506 1507 1507 1509 1512 1513 1513 1515 1519 1519 1517 1521 1528 1528 1526 1526 1525 1526 1526 1525 1525 1525 1524 1525 1524 1524 1525 1524 1522 1522 1520 1519 1518 1517 1516 1514 1512 1511 1509 1508 1507 1506 1504 1502 1501 1500 1499 1498 1497 1494 1490 1487 1486 1486 1486 1487 1489 1490 1491 1492 1492 1492 1492 1492 1492 1491 1491 1492 1493 1494 1494 1495 1495 1496 1497 1498 1499 1500 1502
1501 1494 1496 1500 1502 1506 1506 1505 1506 1508 1509 1509 1510 1512 1514 1517 1522 1521 1519 1524 1529 1528 1527 1526 1525 1526 1525 1524 1525 1525 1525 1525 1524 1524 1525 1523 1522 1521 1519 1518 1517 1516 1515 1513 1512 1510 1508 1507 1506 1505 1504 1502 1500 1500 1499 1498 1497 1494 1490 1487 1486 1486 1486 1486 1486 1486 1487 1488 1489 1488 1488 1488 1487 1486 1486 1486 1488 1491 1492 1493 1494 1494 1495 1496 1496 1498 1499
1504 1492 1495 1501 1501 1503 1507 1506 1507 1509 1511 1512 1512 1512 1514 1520 1526 1526 1524 1527 1530 1528 1525 1525 1526 1525 1524 1525 1526 1526 1525 1525 1524 1525 1524 1523 1522 1520 1518 1517 1516 1514 1514 1512 1511 1510 1508 1506 1505 1504 1503 1502 1500 1499 1498 1498 1496 1494 1491 1488 1487 1486 1486 1485 1485 1485 1485 1486 1486 1486 1486 1486 1485 1484 1483 1483 1484 1486 1489 1491 1492 1493 1493 1493 1494 1495 1496
1506 1495 1496 1500 1502 1510 1516 1511 1507 1508 1510 1513 1513 1512 1514 1518 1523 1527 1530 1529 1526 1524 1523 1525 1527 1526 1526 1527 1527 1525 1525 1525 1525 1526 1524 1523 1521 1519 1518 1517 1515 1514 1512 1511 1510 1509 1507 1506 1504 1503 1502 1501 1500 1499 1498 1497 1495 1493 1490 1488 1487 1486 1484 1484 1484 1484 1485 1485 1485 1484 1484 1484 1484 1483 1482 1482 1483 1484 1486 1489 1490 1491 1491 1491 1491 1492 1493
1509 1498 1495 1502 1514 1525 1523 1511 1505 1508 1511 1514 1516 1516 1516 1517 1520 1524 1527 1525 1521 1522 1524 1526 1527 1528 1528 1528 1527 1525 1525 1526 1526 1525 1524 1523 1521 1519 1517 1516 1514 1513 1511 1510 1509 1508 1507 1506 1504 1502 1501 1501 1500 1498 1497 1496 1494 1492 1490 1487 1486 1485 1484 1484 1484 1484 1485 1485 1485 1484 1483 1483 1482 1482 1482 1482 1483 1484 1486 1488 1489 1489 1489 1488 1488 1489 1490
1508 1502 1504 1519 1530 1526 1515 1507 1505 1508 1510 1512 1514 1515 1514 1515 1519 1521 1522 1523 1523 1524 1526 1527 1528 1528 1528 1527 1526 1525 1526 1527 1526 1525 1523 1522 1520 1518 1517 1515 1513 1512 1510 1509 1508 1506 1505 1504 1503 1502 1500 1499 1498 1497 1496 1494 1493 1491 1489 1487 1486 1484 1483 1483 1483 1484 1485 1485 1485 1484 1484 1483 1482 1481 1481 1482 1483 1484 1485 1487 1487 1487 1487 1486 1485 1485 1485
1509 1508 1513 1526 1529 1516 1508 1510 1509 1509 1512 1513 1517 1519 1516 1515 1518 1520 1522 1524 1524 1525 1527 1528 1528 1528 1528 1526 1524 1525 1526 1526 1525 1524 1523 1521 1520 1518 1516 1514 1513 1511 1510 1508 1507 1505 1504 1503 1502 1501 1499 1498 1497 1495 1494 1493 1491 1490 1488 1487 1485 1485 1484 1483 1483 1483 1483 1484 1484 1483 1483 1483 1482 1481 1481 1481 1482 1484 1484 1484 1484 1484 1485 1484 1484 1484 1483
1509 1512 1513 1515 1518 1517 1517 1516 1512 1512 1516 1517 1521 1526 1523 1518 1519 1522 1524 1526 1526 1527 1528 1528 1528 1529 1527 1524 1523 1525 1526 1525 1525 1524 1522 1521 1520 1517 1516 1514 1512 1510 1509 1507 1506 1504 1502 1501 1500 1499 1498 1497 1495 1494 1493 1491 1490 1489 1487 1486 1485 1484 1483 1482 1482 1481 1481 1481 1481 1481 1481 1481 1481 1480 1480 1480 1480 1481 1481 1481 1481 1481 1482 1482 1482 1482 1482
1506 1512 1516 1515 1521 1529 1527 1518 1513 1514 1516 1516 1518 1524 1527 1524 1523 1525 1527 1527 1528 1529 1529 1529 1529 1528 1527 1525 1524 1525 1525 1525 1524 1522 1521 1520 1519 1517 1515 1513 1510 1509 1507 1506 1505 1503 1501 1499 1498 1497 1496 1495 1494 1493 1491 1490 1488 1488 1486 1485 1484 1482 1482 1481 1480 1479 1478 1478 1477 1477 1478 1478 1479 1478 1478 1478 1478 1477 1478 1478 1479 1479 1479 1480 1480 1480 1479
1509 1514 1520 1519 1526 1532 1525 1516 1514 1515 1517 1516 1517 1525 1533 1530 1527 1528 1529 1529 1530 1530 1530 1530 1529 1529 1529 1528 1525 1525 1525 1524 1523 1521 1520 1519 1517 1516 1514 1512 1510 1508 1506 1504 1503 1502 1500 1498 1497 1496 1495 1493 1492 1491 1490 1488 1487 1486 1485 1484 1482 1480 1480 1480 1479 1476 1475 1474 1474 1474 1475 1475 1476 1476 1476 1476 1475 1475 1475 1476 1477 1477 1477 1478 1478 1477 1477
1512 1514 1516 1519 1527 1528 1520 1516 1518 1518 1518 1517 1522 1535 1540 1533 1529 1531 1531 1530 1531 1531 1531 1530 1529 1529 1531 1529 1526 1525 1525 1523 1522 1521 1519 1518 1516 1514 1513 1511 1509 1506 1504 1503 1501 1500 1499 1497 1495 1494 1493 1491 1490 1489 1488 1487 1486 1484 1484 1482 1481 1479 1479 1478 1476 1474 1473 1472 1472 1472 1472 1472 1473 1473 1473 1473 1473 1473 1473 1474 1475 1476 1476 1476 1476 1475 1475
1510 1512 1514 1521 1529 1526 1518 1519 1520 1519 1519 1522 1531 1541 1540 1532 1531 1532 1531 1531 1532 1531 1531 1531 1530 1530 1530 1528 1526 1526 1524 1523 1522 1520 1519 1517 1516 1514 1512 1510 1508 1506 1503 1501 1500 1499 1497 1496 1494 1493 1491 1489 1488 1487 1486 1485 1484 1483 1482 1480 1479 1478 1477 1475 1474 1472 1470 1470 1469 1469 1469 1470 1470 1470 1470 1470 1470 1470 1470 1471 1472 1475 1476 1475 1474 1473 1473
1509 1509 1512 1523 1531 1527 1520 1521 1521 1520 1525 1532 1537 1537 1533 1532 1533 1532 1532 1533 1532 1531 1532 1531 1530 1530 1529 1528 1526 1525 1523 1522 1521 1519 1518 1516 1515 1514 1511 1509 1507 1505 1502 1500 1499 1497 1495 1494 1493 1491 1489 1488 1487 1485 1484 1484 1482 1481 1480 1479 1477 1476 1475 1474 1472 1470 1469 1468 1467 1467 1467 1467 1467 1468 1468 1469 1468 1468 1467 1467 1470 1473 1475 1474 1473 1472 1472
1511 1510 1516 1531 1538 1530 1521 1522 1524 1524 1529 1535 1535 1532 1531 1533 1533 1532 1533 1533 1532 1532 1532 1531 1530 1529 1528 1527 1525 1524 1523 1522 1520 1519 1517 1515 1514 1513 1510 1508 1506 1504 1502 1499 1497 1495 1494 1493 1491 1490 1488 1486 1485 1484 1483 1482 1481 1480 1478 1477 1476 1474 1473 1472 1470 1468 1467 1466 1465 1465 1464 1464 1465 1465 1466 1466 1466 1466 1465 1465 1467 1472 1474 1473 1472 1471 1471
1519 1521 1527 1534 1534 1526 1522 1525 1528 1529 1531 1533 1532 1531 1532 1532 1533 1533 1534 1533 1533 1533 1532 1530 1530 1529 1527 1526 1525 1523 1522 1521 1519 1518 1517 1515 1514 1512 1509 1507 1505 1503 1501 1498 1495 1493 1492 1491 1490 1488 1487 1485 1483 1482 1481 1480 1479 1477 1476 1475 1473 1472 1471 1469 1468 1467 1466 1465 1464 1463 1462 1462 1463 1463 1464 1464 1464 1464 1464 1464 1465 1470 1473 1472 1471 1470 1469
1521 1526 1528 1527 1526 1524 1525 1527 1528 1530 1532 1532 1532 1533 1532 1533 1534 1534 1533 1533 1533 1533 1532 1531 1529 1527 1526 1525 1524 1522 1522 1520 1519 1518 1516 1514 1513 1510 1508 1506 1504 1502 1500 1497 1494 1492 1490 1489 1488 1486 1485 1483 1481 1480 1479 1478 1477 1475 1474 1473 1471 1470 1468 1467 1465 1465 1464 1463 1462 1461 1460 1460 1461 1461 1462 1462 1462 1463 1464 1464 1464 1467 1471 1472 1470 1469 1469
1520 1523 1524 1522 1524 1527 1527 1528 1530 1532 1533 1532 1533 1533 1533 1534 1534 1534 1534 1534 1533 1532 1531 1530 1528 1527 1526 1524 1523 1522 1521 1519 1518 1517 1515 1513 1511 1509 1507 1505 1502 1500 1498 1495 1493 1490 1488 1487 1486 1484 1483 1481 1480 1478 1477 1476 1474 1473 1472 1471 1469 1468 1466 1464 1463 1463 1461 1461 1460 1459 1458 1458 1458 1459 1460 1460 1460 1460 1461 1463 1464 1465 1469 1471 1469 1469 1468
1524 1526 1524 1521 1524 1527 1528 1529 1531 1532 1532 1533 1534 1534 1534 1535 1535 1534 1534 1533 1532 1532 1531 1529 1527 1526 1525 1523 1522 1521 1520 1518 1517 1515 1513 1512 1509 1507 1506 1503 1501 1498 1496 1493 1491 1488 1486 1485 1484 1482 1481 1479 1478 1477 1475 1474 1473 1471 1470 1469 1467 1466 1464 1463 1462 1461 1460 1460 1459 1458 1457 1456 1456 1457 1457 1458 1458 1457 1458 1461 1461 1463 1467 1470 1469 1468 1467
1523 1525 1524 1522 1524 1528 1529 1530 1531 1531 1532 1534 1534 1534 1535 1535 1534 1534 1533 1532 1532 1531 1529 1528 1527 1526 1524 1523 1521 1520 1519 1517 1515 1513 1512 1510 1508 1506 1504 1501 1499 1496 1493 1490 1488 1485 1484 1482 1481 1480 1479 1477 1476 1475 1473 1472 1471 1469 1468 1467 1465 1464 1463 1462 1461 1460 1459 1459 1458 1457 1456 1455 1455 1455 1455 1456 1457 1457 1457 1458 1458 1459 1464 1468 1468 1467 1466
1521 1523 1524 1525 1526 1528 1529 1530 1531 1532 1533 1534 1534 1535 1535 1534 1534 1533 1532 1532 1532 1530 1529 1528 1526 1525 1523 1522 1521 1519 1518 1516 1514 1512 1510 1508 1506 1504 1502 1499 1497 1494 1491 1488 1486 1484 1482 1480 1479 1478 1477 1476 1475 1473 1472 1471 1469 1468 1467 1465 1463 1463 1462 1461 1460 1458 1458 1458 1457 1457 1456 1455 1454 1453 1453 1454 1455 1456 1457 1458 1457 1458 1461 1464 1466 1466 1466
1526 1528 1528 1529 1529 1530 1530 1530 1531 1532 1533 1534 1534 1534 1534 1533 1533 1533 1532 1531 1530 1529 1528 1527 1525 1524 1522 1521 1520 1518 1516 1514 1512 1511 1508 1506 1504 1502 1499 1497 1495 1492 1489 1487 1484 1482 1480 1478 1477 1477 1475 1474 1473 1472 1470 1470 1468 1466 1464 1463 1462 1462 1461 1460 1459 1457 1456 1456 1456 1456 1455 1454 1453 1453 1452 1453 1453 1454 1455 1456 1457 1458 1459 1462 1463 1464 1465
1529 1529 1529 1530 1531 1530 1530 1531 1532 1533 1533 1533 1534 1534 1533 1533 1533 1532 1532 1531 1529 1528 1527 1526 1524 1522 1521 1519 1518 1516 1514 1513 1511 1509 1507 1505 1502 1500 1497 1495 1492 1490 1487 1484 1482 1480 1478 1476 1475 1475 1474 1472 1471 1470 1469 1469 1467 1465 1463 1462 1461 1460 1460 1459 1457 1456 1455 1455 1455 1454 1454 1453 1454 1453 1452 1452 1452 1453 1453 1454 1456 1457 1459 1460 1461 1462 1463
1528 1529 1531 1532 1532 1531 1531 1532 1533 1533 1533 1534 1534 1534 1533 1533 1532 1532 1531 1530 1528 1527 1525 1524 1522 1521 1519 1519 1517 1515 1513 1512 1510 1508 1506 1504 1501 1498 1496 1493 1491 1488 1485 1482 1480 1478 1475 1474 1473 1472 1471 1470 1469 1468 1468 1467 1466 1464 1462 1461 1459 1458 1458 1457 1456 1455 1455 1454 1454 1454 1452 1451 1452 1453 1453 1453 1452 1452 1452 1453 1455 1456 1457 1457 1458 1460 1461
1530 1532 1532 1533 1533 1532 1532 1532 1532 1532 1533 1534 1534 1533 1533 1533 1532 1531 1530 1528 1527 1525 1523 1522 1521 1520 1519 1517 1516 1514 1512 1510 1508 1506 1504 1502 1499 1497 1495 1492 1490 1486 1483 1481 1478 1476 1473 1472 1471 1470 1469 1468 1466 1466 1465 1464 1462 1460 1459 1459 1458 1457 1456 1455 1454 1454 1454 1453 1453 1453 1451 1449 1449 1451 1453 1453 1452 1451 1452 1452 1453 1454 1455 1455 1456 1457 1459
1531 1532 1532 1532 1532 1532 1532 1532 1532 1532 1533 1533 1533 1533 1532 1532 1531 1529 1528 1527 1525 1524 1522 1521 1520 1519 1518 1516 1515 1513 1511 1508 1507 1505 1503 1501 1498 1496 1493 1491 1488 1485 1482 1480 1477 1474 1472 1470 1468 1467 1467 1466 1464 1463 1462 1461 1459 1457 1456 1456 1456 1455 1454 1453 1453 1453 1453 1452 1452 1451 1450 1449 1448 1449 1451 1452 1451 1451 1452 1452 1452 1453 1454 1454 1455 1455 1457
1531 1532 1532 1532 1531 1532 1532 1533 1533 1533 1533 1533 1533 1532 1531 1530 1529 1528 1526 1525 1524 1523 1522 1521 1520 1518 1517 1515 1514 1512 1510 1507 1505 1503 1502 1500 1497 1495 1492 1490 1487 1484 1481 1478 1475 1472 1470 1468 1466 1465 1464 1463 1462 1460 1459 1458 1457 1455 1454 1453 1453 1453 1453 1453 1452 1451 1451 1451 1451 1450 1449 1448 1448 1448 1450 1451 1451 1451 1452 1452 1452 1452 1453 1453 1453 1454 1455
1533 1533 1533 1532 1532 1533 1533 1533 1533 1533 1533 1533 1532 1531 1530 1529 1528 1526 1525 1524 1523 1522 1521 1520 1519 1517 1516 1514 1513 1510 1508 1506 1503 1502 1500 1498 1496 1494 1491 1488 1486 1483 1480 1477 1474 1471 1468 1466 1465 1464 1463 1461 1460 1458 1457 1456 1455 1454 1453 1451 1451 1451 1452 1452 1451 1451 1450 1450 1449 1449 1449 1448 1448 1449 1451 1452 1451 1451 1452 1452 1453 1453 1452 1452 1452 1453 1454
1533 1533 1534 1534 1533 1533 1533 1533 1533 1533 1532 1532 1531 1530 1529 1528 1527 1526 1525 1524 1523 1522 1520 1519 1518 1517 1515 1513 1511 1509 1507 1505 1502 1500 1498 1496 1494 1492 1490 1487 1484 1482 1479 1476 1473 1469 1467 1465 1464 1463 1462 1460 1458 1457 1456 1455 1454 1453 1452 1450 1449 1449 1450 1450 1450 1449 1449 1448 1448 1448 1448 1448 1447 1448 1450 1452 1453 1453 1454 1455 1455 1454 1452 1452 1452 1453 1454
1533 1533 1534 1534 1533 1533 1532 1532 1532 1532 1531 1530 1530 1529 1528 1527 1526 1525 1524 1523 1522 1521 1520 1518 1517 1515 1514 1512 1511 1508 1506 1504 1502 1500 1498 1495 1493 1491 1489 1486 1483 1480 1478 1475 1472 1469 1466 1464 1462 1461 1460 1458 1457 1456 1455 1454 1453 1452 1451 1449 1448 1448 1448 1448 1448 1448 1448 1448 1448 1448 1448 1448 1448 1447 1448 1450 1452 1453 1455 1456 1456 1455 1454 1453 1453 1454 1454
1533 1533 1533 1532 1532 1532 1531 1531 1531 1531 1530 1529 1529 1528 1527 1526 1525 1524 1523 1522 1521 1520 1518 1517 1515 1514 1512 1511 1509 1507 1505 1503 1501 1499 1497 1495 1492 1490 1488 1485 1482 1480 1478 1475 1472 1469 1466 1464 1462 1460 1458 1457 1456 1455 1454 1453 1452 1451 1449 1448 1447 1447 1446 1446 1446 1447 1447 1447 1447 1447 1447 1447 1447 1447 1447 1448 1450 1452 1454 1455 1454 1454 1454 1453 1453 1453 1454
1532 1532 1532 1532 1532 1532 1531 1531 1531 1530 1529 1528 1528 1526 1526 1525 1525 1524 1522 1521 1520 1519 1517 1516 1514 1513 1511 1510 1508 1506 1504 1501 1499 1498 1496 1494 1492 1490 1487 1485 1483 1480 1478 1475 1472 1469 1466 1463 1461 1460 1458 1456 1455 1453 1452 1451 1450 1449 1448 1448 1447 1446 1446 1446 1446 1446 1446 1446 1446 1446 1445 1446 1446 1445 1445 1447 1448 1451 1453 1453 1452 1452 1452 1453 1453 1453 1453
1532 1532 1531 1532 1532 1531 1531 1530 1530 1529 1528 1527 1526 1525 1525 1525 1524 1523 1522 1520 1519 1518 1516 1515 1514 1512 1510 1508 1506 1504 1502 1500 1498 1497 1495 1493 1491 1489 1487 1485 1482 1480 1477 1475 1472 1470 1466 1463 1461 1459 1457 1455 1454 1452 1451 1450 1448 1447 1447 1446 1446 1445 1445 1445 1445 1445 1444 1444 1445 1444 1444 1445 1445 1444 1444 1446 1448 1449 1451 1451 1451 1451 1451 1452 1452 1452 1452
1532 1532 1532 1532 1532 1531 1530 1530 1529 1528 1527 1526 1526 1525 1525 1524 1523 1522 1520 1519 1518 1517 1515 1514 1513 1511 1509 1507 1506 1504 1502 1500 1498 1496 1494 1492 1490 1488 1486 1484 1482 1479 1477 1475 1472 1469 1466 1463 1461 1458 1456 1454 1452 1451 1450 1448 1447 1446 1445 1444 1444 1445 1445 1444 1444 1443 1442 1442 1443 1443 1443 1444 1444 1443 1444 1445 1447 1448 1448 1449 1449 1450 1450 1450 1450 1450 1451
1531 1531 1531 1531 1531 1530 1529 1529 1528 1527 1526 1526 1525 1524 1524 1522 1521 1520 1519 1518 1517 1515 1514 1513 1512 1510 1508 1506 1505 1503 1501 1499 1497 1495 1493 1491 1489 1487 1485 1483 1481 1479 1477 1474 1472 1469 1466 1464 1461 1458 1455 1453 1451 1450 1448 1447 1446 1445 1444 1443 1443 1443 1444 1443 1443 1442 1441 1441 1441 1442 1443 1443 1443 1443 1443 1444 1445 1445 1446 1447 1447 1447 1447 1448 1448 1448 1449
1530 1530 1530 1530 1530 1529 1528 1528 1527 1527 1526 1525 1524 1523 1522 1521 1520 1519 1518 1517 1516 1514 1513 1512 1510 1509 1507 1505 1504 1502 1500 1498 1496 1495 1493 1491 1488 1486 1484 1482 1480 1478 1476 1473 1471 1469 1466 1463 1461 1458 1455 1452 1451 1449 1448 1446 1445 1444 1443 1443 1442 1442 1443 1442 1441 1441 1440 1440 1440 1441 1442 1443 1443 1443 1443 1443 1444 1444 1444 1445 1445 1445 1445 1446 1446 1447 1448
1530 1529 1529 1529 1528 1528 1528 1527 1526 1526 1525 1524 1523 1522 1521 1520 1519 1518 1516 1515 1514 1513 1512 1510 1509 1507 1506 1505 1503 1501 1499 1497 1496 1494 1492 1490 1488 1486 1484 1482 1480 1477 1475 1473 1471 1468 1466 1463 1461 1458 1455 1453 1450 1448 1447 1446 1445 1444 1443 1443 1443 1442 1442 1441 1441 1440 1439 1439 1439 1441 1441 1442 1443 1443 1442 1442 1443 1443 1444 1444 1443 1443 1444 1444 1444 1446 1447
1529 1529 1528 1528 1527 1527 1527 1526 1526 1525 1524 1523 1522 1521 1520 1518 1517 1516 1515 1514 1513 1512 1510 1509 1508 1507 1505 1504 1502 1499 1498 1496 1495 1494 1492 1489 1487 1485 1484 1482 1479 1477 1475 1473 1471 1469 1466 1464 1461 1458 1455 1453 1450 1448 1446 1445 1444 1443 1443 1442 1442 1441 1440 1440 1440 1440 1439 1439 1439 1439 1440 1440 1441 1441 1441 1441 1441 1442 1442 1442 1442 1442 1443 1443 1444 1445 1447
1528 1528 1528 1527 1526 1526 1526 1525 1525 1524 1523 1522 1520 1519 1518 1517 1516 1515 1514 1513 1512 1511 1509 1508 1507 1506 1504 1502 1500 1498 1496 1495 1494 1492 1490 1488 1487 1485 1484 1482 1480 1478 1476 1473 1471 1469 1467 1464 1461 1458 1455 1452 1450 1447 1445 1444 1443 1442 1442 1441 1441 1440 1439 1439 1439 1439 1439 1439 1438 1438 1439 1439 1440 1440 1440 1440 1440 1440 1441 1442 1442 1442 1443 1444 1444 1446 1447
1527 1527 1527 1526 1526 1525 1525 1524 1523 1522 1522 1521 1519 1518 1517 1516 1515 1514 1513 1512 1511 1510 1509 1507 1506 1504 1503 1501 1499 1497 1496 1495 1494 1492 1490 1488 1486 1485 1484 1482 1480 1478 1476 1474 1472 1469 1467 1465 1462 1459 1455 1453 1450 1447 1445 1443 1442 1441 1441 1440 1440 1440 1439 1439 1439 1439 1438 1438 1438 1438 1438 1438 1438 1439 1440 1440 1440 1441 1442 1442 1442 1443 1443 1444 1445 1446 1448
1526 1526 1526 1525 1525 1524 1524 1523 1522 1521 1520 1519 1518 1517 1516 1515 1514 1513 1512 1511 1510 1509 1508 1507 1505 1504 1502 1501 1499 1497 1496 1495 1493 1491 1489 1487 1486 1485 1484 1482 1480 1478 1476 1474 1472 1470 1467 1465 1462 1460 1457 1454 1451 1449 1446 1443 1441 1440 1439 1439 1439 1439 1439 1439 1439 1438 1439 1439 1438 1438 1438 1437 1437 1438 1439 1440 1440 1441 1441 1442 1442 1443 1444 1445 1445 1447 1448
1526 1525 1525 1524 1524 1524 1523 1522 1521 1520 1519 1518 1517 1516 1515 1514 1513 1512 1511 1510 1509 1509 1507 1506 1505 1503 1501 1500 1498 1497 1495 1494 1493 1491 1489 1487 1486 1485 1483 1482 1480 1478 1476 1474 1472 1470 1467 1465 1463 1460 1458 1455 1453 1450 1446 1443 1441 1439 1438 1438 1438 1438 1438 1438 1438 1439 1439 1439 1438 1437 1437 1437 1437 1437 1439 1440 1441 1441 1442 1442 1443 1444 1446 1446 1446 1446 1447
1525 1524 1524 1523 1523 1522 1522 1521 1520 1519 1518 1517 1516 1515 1514 1513 1512 1511 1509 1509 1509 1508 1507 1506 1504 1502 1501 1499 1497 1496 1494 1493 1492 1491 1489 1488 1487 1485 1484 1482 1480 1478 1477 1475 1473 1470 1468 1465 1463 1461 1459 1457 1454 1451 1447 1443 1441 1439 1438 1437 1437 1437 1438 1438 1438 1439 1439 1438 1438 1438 1438 1438 1437 1438 1439 1440 1441 1442 1443 1443 1444 1445 1447 1447 1447 1447 1448
1523 1523 1523 1522 1522 1521 1520 1520 1519 1518 1517 1515 1514 1513 1513 1512 1511 1510 1508 1508 1507 1507 1506 1504 1503 1501 1499 1497 1496 1495 1493 1492 1491 1490 1489 1488 1487 1485 1484 1482 1481 1479 1477 1475 1473 1471 1469 1467 1464 1462 1460 1458 1455 1452 1448 1445 1442 1439 1438 1437 1437 1437 1437 1437 1438 1438 1438 1438 1438 1439 1439 1439 1439 1439 1439 1440 1441 1442 1443 1444 1445 1446 1447 1447 1448 1448 1449
1522 1522 1521 1521 1520 1520 1519 1518 1518 1517 1515 1514 1513 1512 1511 1511 1510 1509 1508 1507 1506 1505 1504 1503 1502 1500 1498 1496 1495 1494 1493 1492 1491 1490 1489 1488 1487 1485 1483 1482 1481 1479 1478 1476 1474 1472 1471 1468 1466 1464 1462 1459 1456 1453 1450 1447 1444 1441 1439 1437 1436 1436 1436 1437 1437 1438 1439 1439 1439 1439 1439 1439 1439 1439 1439 1440 1441 1441 1442 1443 1444 1445 1447 1448 1449 1449 1450
1521 1520 1520 1520 1519 1518 1518 1517 1516 1515 1514 1513 1512 1511 1510 1509 1509 1508 1507 1506 1505 1505 1503 1502 1501 1499 1497 1496 1494 1493 1492 1491 1491 1490 1489 1488 1487 1485 1483 1482 1481 1480 1478 1476 1475 1474 1472 1470 1467 1465 1463 1461 1458 1455 1452 1449 1446 1443 1440 1438 1437 1437 1436 1437 1437 1438 1439 1440 1439 1439 1440 1440 1440 1439 1439 1440 1441 1441 1442 1442 1444 1445 1447 1448 1450 1451 1452
1519 1519 1519 1518 1517 1517 1516 1516 1515 1514 1513 1512 1511 1510 1509 1508 1508 1507 1505 1504 1504 1503 1502 1500 1499 1498 1496 1495 1493 1492 1491 1491 1490 1490 1489 1488 1487 1486 1484 1482 1481 1480 1478 1477 1475 1474 1473 1471 1469 1466 1464 1462 1460 1457 1454 1451 1448 1445 1442 1439 1438 1437 1437 1437 1437 1438 1439 1440 1440 1440 1440 1440 1440 1440 1441 1441 1442 1443 1443 1444 1445 1447 1448 1449 1451 1452 1453
1518 1517 1517 1516 1516 1515 1515 1514 1513 1513 1512 1511 1510 1509 1508 1507 1507 1505 1504 1503 1502 1501 1500 1498 1497 1496 1495 1494 1493 1492 1491 1490 1490 1489 1488 1487 1486 1485 1484 1482 1481 1480 1479 1477 1476 1475 1473 1471 1470 1467 1465 1464 1462 1460 1457 1455 1451 1448 1445 1442 1440 1438 1438 1438 1438 1438 1439 1439 1439 1440 1440 1441 1441 1442 1443 1443 1444 1445 1445 1446 1447 1448 1449 1450 1451 1452 1453
1516 1515 1515 1514 1514 1514 1513 1513 1512 1511 1511 1510 1509 1508 1507 1506 1505 1504 1502 1501 1500 1499 1498 1496 1495 1494 1494 1493 1492 1491 1490 1490 1489 1489 1488 1487 1486 1485 1483 1482 1482 1481 1479 1478 1477 1476 1474 1472 1470 1468 1467 1465 1464 1462 1460 1458 1455 1452 1449 1446 1443 1440 1439 1439 1439 1439 1439 1440 1440 1440 1441 1441 1442 1443 1444 1445 1445 1446 1447 1447 1448 1449 1450 1451 1452 1453 1454
1514 1513 1513 1513 1512 1512 1511 1511 1510 1510 1509 1508 1508 1507 1506 1505 1504 1503 1502 1501 1500 1499 1498 1496 1495 1494 1494 1493 1491 1490 1490 1489 1489 1488 1488 1487 1486 1485 1484 1483 1482 1481 1480 1479 1479 1477 1475 1473 1471 1470 1468 1467 1465 1464 1463 1461 1459 1456 1454 1451 1448 1445 1443 1442 1441 1441 1441 1441 1441 1442 1442 1443 1443 1444 1445 1446 1446 1447 1448 1449 1450 1450 1451 1452 1453 1454 1455
1512 1511 1511 1510 1510 1510 1509 1509 1509 1508 1508 1507 1507 1506 1505 1504 1503 1503 1501 1500 1499 1498 1497 1496 1495 1494 1493 1492 1491 1490 1489 1489 1489 1488 1488 1487 1486 1485 1484 1483 1483 1482 1481 1480 1479 1478 1477 1475 1473 1471 1470 1468 1467 1467 1465 1464 1462 1460 1458 1456 1453 1451 1448 1446 1445 1444 1444 1444 1444 1444 1444 1444 1445 1446 1447 1448 1448 1449 1450 1451 1451 1452 1453 1454 1455 1456 1457
1509 1508 1508 1508 1508 1508 1508 1507 1507 1507 1506 1505 1505 1504 1504 1503 1503 1502 1500 1499 1499 1498 1497 1497 1496 1494 1493 1492 1491 1490 1490 1489 1489 1489 1488 1487 1486 1485 1485 1484 1483 1483 1482 1481 1480 1479 1478 1477 1475 1473 1472 1471 1470 1469 1468 1466 1465 1463 1462 1460 1459 1457 1455 1453 1451 1450 1450 1449 1449 1449 1448 1448 1449 1449 1450 1451 1451 1452 1453 1454 1454 1455 1456 1456 1457 1458 1459